RH
49 48 46 53 50 40 53 61 56 50 47 34 38 46 50 57 50 46 41 37 34 33 43 40 37 33 36 40 42 52 58 69 64 58 70 74 71 68 64 65 67 67 67 65
55 54 48 49 47 50 42 36 35 41 44 45 44 45 47 51 45 38 32 33 31 27 38 38 41 43 42 43 48 50 54 55 58 68 70 72 68 63 64 63 57 54 55 55
62 54 55 50 46 45 47 48 43 45 43 41 37 44 48 46 40 36 33 27 29 27 38 38 43 44 46 45 46 52 56 60 65 67 62 59 55 51 48 47 46 49 52 58
73 69 63 39 43 38 42 41 39 39 39 42 41 40 44 47 46 40 32 31 34 43 44 41 41 45 49 54 56 60 65 65 60 57 52 47 43 42 41 44 46 50 56 60
74 62 50 40 42 42 39 36 34 41 39 44 42 42 42 42 42 34 33 33 39 45 47 43 40 45 50 54 54 55 58 55 51 46 41 38 36 38 43 47 51 55 58 60
82 72 69 49 39 36 43 44 39 48 43 42 44 55 50 43 34 27 26 33 38 40 43 43 42 41 45 48 50 49 46 47 42 37 35 37 41 44 47 52 55 58 57 55
85 82 65 46 40 39 51 46 47 52 50 40 50 50 40 31 28 25 29 34 35 35 38 41 39 38 38 39 41 45 43 38 35 36 39 42 44 48 49 51 53 52 50 49
85 82 77 53 53 50 51 40 51 41 48 54 46 42 35 30 29 25 28 32 35 37 37 38 39 39 40 43 43 39 36 36 39 42 44 47 48 47 48 52 53 51 52 53
88 74 65 67 57 56 53 49 50 51 62 55 43 39 37 35 32 25 29 34 38 41 41 42 43 44 44 42 39 36 36 39 42 44 46 47 48 49 55 58 55 54 53 52
74 66 67 82 72 59 61 62 54 59 62 49 49 45 43 41 35 27 31 35 39 42 45 46 45 45 42 41 38 39 41 43 45 47 48 49 52 55 58 56 53 53 54 54
74 62 62 66 67 67 67 69 65 61 62 57 52 45 46 44 34 30 33 37 41 43 46 48 48 47 46 45 44 45 47 49 52 52 51 53 57 55 55 55 55 56 54 53
62 52 58 61 64 64 66 60 60 64 65 59 56 54 49 43 34 34 38 40 43 46 46 47 50 51 50 49 50 53 55 58 58 57 58 62 60 57 58 59 60 58 55 52
58 58 61 58 52 52 58 63 61 67 64 60 61 61 54 45 38 38 41 44 46 48 48 47 48 50 52 55 57 60 65 67 69 70 70 65 63 65 67 67 65 60 56 52
54 53 55 52 55 56 60 67 70 72 71 71 68 65 63 59 52 49 48 51 51 52 52 52 53 55 60 64 66 72 74 72 73 72 68 68 69 69 70 69 67 65 63 61
50 51 55 56 56 60 54 60 62 70 74 74 72 72 73 70 66 61 61 61 64 68 69 69 69 72 76 79 81 79 81 81 76 76 77 73 73 71 68 68 67 65 66 65
52 55 57 57 69 65 53 59 67 72 75 77 76 80 77 76 79 78 78 79 81 80 77 79 83 83 83 82 84 85 84 84 86 83 80 78 73 73 74 72 70 69 70 71
69 63 57 65 68 69 73 69 66 71 73 74 77 81 77 81 83 85 85 87 86 88 91 93 91 89 93 97 97 97 95 88 85 81 81 79 79 78 76 74 73 73 73 73
70 70 66 61 58 67 71 68 64 62 67 77 83 82 91 91 93 94 97 97 96 97 97 97 97 97 97 97 97 95 91 88 87 86 86 85 82 80 79 78 77 78 82 83
67 66 66 61 63 70 70 71 78 83 79 79 81 83 83 95 96 93 92 95 96 97 97 97 97 97 96 96 94 92 91 89 89 88 88 88 86 85 85 85 87 86 85 82
71 74 71 69 77 82 83 96 94 98 98 97 94 95 90 92 95 96 96 97 97 97 97 97 97 97 97 97 97 97 95 89 88 89 90 91 91 93 92 90 88 84 80 75
89 92 91 89 86 86 88 91 95 93 93 95 97 97 97 97 96 97 97 97 97 97 97 97 97 97 97 96 95 96 97 97 97 97 97 96 96 94 87 81 79 72 67 66
96 96 95 93 92 95 97 97 96 97 96 95 97 97 96 96 97 97 97 97 97 97 97 97 97 97 97 97 97 97 95 94 92 90 89 86 81 77 74 68 64 62 61 60
96 97 97 97 96 96 96 96 96 96 96 97 97 96 96 96 97 97 97 97 97 97 97 97 97 96 95 92 89 86 84 81 76 70 66 63 58 55 55 55 55 53 52 52
97 96 96 97 97 96 96 96 96 96 96 97 97 97 96 97 97 97 97 97 97 96 94 91 86 81 75 71 67 61 56 53 49 45 44 44 45 46 46 45 45 46 47 47
96 96 96 96 96 96 97 97 96 96 96 96 97 96 96 96 94 92 89 85 79 73 66 61 55 51 49 45 40 37 35 35 35 35 37 38 39 41 42 44 45 46 46 48
92 90 87 85 82 80 79 78 76 75 74 70 67 62 58 54 50 47 45 43 40 38 37 37 34 30 30 30 30 31 32 34 37 38 39 40 41 43 46 48 49 49 50 51
63 59 56 53 52 50 47 44 42 40 37 38 36 34 32 32 32 32 32 33 32 32 31 30 30 30 32 32 33 34 35 37 40 42 43 44 46 48 50 51 52 54 55 55